Pagina principale
METAR-TAF:

METAR-TAF

Aeroporti :

Coatesville, Pennsylvania, Stati Uniti

latitudine: 39-58-44N, longitudine: 075-51-56W, altezza: 201 m

Osservazione

Il bollettino è stato emesso 24 minuti fa, alle 07:55 UTC
Vento 5 kt da ovest/nord-ovest
Temperature 21°C
Umidità 94%
Pressione 1018 hPa
Visibilità: 14.5 km
Cielo sereno

METAR: KMQS 160755Z AUTO 29005KT 9SM CLR 21/20 A3006 RMK AO2

Ora: 04:19 (08:19 UTC)


TAF: mancante

Osservazioni e previsioni meteorologiche di più di 4000 aeroporti (messaggi METAR e TAF).

Le stazioni disponibili sono rappresentate dai dischi gialli e rossi sulla carta.

Puntare il mouse per vedere il nome della stazione.

Clicca sopra per visualizzare le osservazioni e previsioni meteorologiche.

Per cambiare la mappa : fare clic sui pulsanti verdi con una croce nera per ingrandire, il pulsante verde con un trattino per diminuire, o sulla freccia verde per le mappe adiacenti.


METAR-TAF: